Weather History for KAQO - April, 2014

Change the Weather History Date:

Sunday, April 13, 2014

  Actual Average (KBMQ) Record (KBMQ)
Temperature  
Mean Temperature 75 °F -  
Max Temperature 82 °F 74 °F 86 °F (2006)
Min Temperature 68 °F 52 °F 34 °F (1997)
Cooling Degree Days 10    
Growing Degree Days 25 (Base 50)    
Moisture  
Dew Point 64 °F    
Average Humidity 76    
Maximum Humidity 94    
Minimum Humidity 54    
Precipitation  
Precipitation 0.03 in - - ()
Sea Level Pressure  
Sea Level Pressure 29.79 in    
Wind  
Wind Speed 9 mph (South)    
Max Wind Speed 16 mph    
Max Gust Speed 29 mph    
Visibility 10 miles    
Events Rain    
Averages and records for this station are not official NWS values.
T = Trace of Precipitation, MM = Missing Value Source: NWS Daily Summary

Daily Weather History Graph

Daily Weather History Graph

Search for Another Location

Airport or City:

Trip Planner

Search our weather history database for the weather conditions in past years. The results will help you decide how hot, cold, wet, or windy it might be!

Date:

Astronomy

Apr. 13, 2014 Rise Set
Actual Time 7:09 AM CDT 8:01 PM CDT
Civil Twilight 6:44 AM CDT 8:26 PM CDT
Nautical Twilight 6:15 AM CDT 8:55 PM CDT
Astronomical Twilight 5:45 AM CDT 9:25 PM CDT
Moon 6:45 PM CDT (4/13) 6:02 AM CDT (4/13)
Length of Visible Light 13h 41m
Length of Day
12h 52m
Waxing Gibbous, 97% of the Moon is Illuminated
Apr 13
Waxing Gibbous
Apr 15
Full
Apr 22
Last Quarter
Apr 29
New
May 6
First Quarter

Hourly Weather History & Observations

Time (CDT) Temp. Heat Index Dew Point Humidity Pressure Visibility Wind Dir Wind Speed Gust Speed Precip Events Conditions
12:15 AM 73.4 °F - 64.4 °F 73% 29.86 in 10.0 mi South 12.7 mph 18.4 mph N/A   Overcast
12:35 AM 73.4 °F - 64.4 °F 73% 29.86 in 10.0 mi South 12.7 mph 21.9 mph N/A   Overcast
12:55 AM 71.6 °F - 64.4 °F 78% 29.86 in 10.0 mi South 11.5 mph 20.7 mph N/A   Overcast
1:15 AM 71.6 °F - 64.4 °F 78% 29.87 in 10.0 mi South 13.8 mph 19.6 mph N/A   Overcast
1:35 AM 71.6 °F - 64.4 °F 78% 29.86 in 10.0 mi South 13.8 mph - N/A   Overcast
1:55 AM 71.6 °F - 64.4 °F 78% 29.86 in 10.0 mi South 10.4 mph - N/A   Overcast
2:15 AM 71.6 °F - 62.6 °F 73% 29.86 in 10.0 mi South 10.4 mph 20.7 mph N/A   Overcast
2:35 AM 71.6 °F - 62.6 °F 73% 29.86 in 10.0 mi South 13.8 mph 20.7 mph N/A   Overcast
2:55 AM 71.6 °F - 62.6 °F 73% 29.85 in 10.0 mi South 10.4 mph - N/A   Overcast
3:15 AM 69.8 °F - 62.6 °F 78% 29.84 in 10.0 mi South 8.1 mph - N/A   Overcast
3:35 AM 71.6 °F - 62.6 °F 73% 29.86 in 10.0 mi South 11.5 mph - N/A   Mostly Cloudy
3:55 AM 69.8 °F - 62.6 °F 78% 29.85 in 10.0 mi South 8.1 mph - N/A   Mostly Cloudy
4:15 AM 69.8 °F - 62.6 °F 78% 29.85 in 10.0 mi South 9.2 mph - N/A   Mostly Cloudy
4:35 AM 69.8 °F - 62.6 °F 78% 29.84 in 10.0 mi South 8.1 mph 16.1 mph N/A   Overcast
4:55 AM 69.8 °F - 62.6 °F 78% 29.84 in 10.0 mi South 11.5 mph - N/A   Overcast
5:15 AM 69.8 °F - 62.6 °F 78% 29.83 in 10.0 mi South 8.1 mph - N/A   Overcast
5:35 AM 68.0 °F - 64.4 °F 88% 29.81 in 10.0 mi SSE 5.8 mph - N/A   Overcast
5:55 AM 68.0 °F - 64.4 °F 88% 29.82 in 10.0 mi South 6.9 mph - N/A   Overcast
6:15 AM 69.8 °F - 64.4 °F 83% 29.80 in 10.0 mi SSE 5.8 mph - N/A   Overcast
6:35 AM 69.8 °F - 64.4 °F 83% 29.79 in 10.0 mi SSE 9.2 mph - N/A   Overcast
6:55 AM 69.8 °F - 64.4 °F 83% 29.78 in 10.0 mi SSE 8.1 mph 17.3 mph N/A   Overcast
7:15 AM 69.8 °F - 64.4 °F 83% 29.79 in 10.0 mi South 8.1 mph 18.4 mph N/A   Overcast
7:35 AM 69.8 °F - 64.4 °F 83% 29.82 in 10.0 mi South 6.9 mph - N/A   Overcast
7:55 AM 69.8 °F - 64.4 °F 83% 29.83 in 10.0 mi South 11.5 mph - N/A   Overcast
8:15 AM 69.8 °F - 64.4 °F 83% 29.83 in 10.0 mi South 6.9 mph 16.1 mph N/A   Overcast
8:35 AM 69.8 °F - 64.4 °F 83% 29.83 in 10.0 mi South 6.9 mph - N/A   Overcast
8:55 AM 69.8 °F - 64.4 °F 83% 29.84 in 10.0 mi South 9.2 mph - N/A   Overcast
9:15 AM 69.8 °F - 64.4 °F 83% 29.85 in 10.0 mi SW 5.8 mph - N/A   Overcast
9:55 AM 69.8 °F - 64.4 °F 83% 29.87 in 10.0 mi Calm Calm - N/A   Overcast
10:15 AM 69.8 °F - 64.4 °F 83% 29.87 in 10.0 mi Calm Calm - N/A   Overcast
10:35 AM 71.6 °F - 64.4 °F 78% 29.87 in 10.0 mi SW 4.6 mph - N/A   Overcast
10:55 AM 71.6 °F - 64.4 °F 78% 29.88 in 10.0 mi SW 9.2 mph - N/A   Overcast
11:15 AM 71.6 °F - 64.4 °F 78% 29.88 in 10.0 mi SW 6.9 mph - N/A   Overcast
11:35 AM 71.6 °F - 66.2 °F 83% 29.87 in 3.0 mi SW 8.1 mph - N/A Rain Light Rain
11:55 AM 69.8 °F - 66.2 °F 88% 29.88 in 2.0 mi SW 5.8 mph - 0.03 in   Light Drizzle
12:15 PM 69.8 °F - 66.2 °F 88% 29.86 in 5.0 mi SSW 6.9 mph - N/A   Mostly Cloudy
12:35 PM 69.8 °F - 66.2 °F 88% 29.86 in 3.0 mi Calm Calm - N/A Rain Light Rain
1:15 PM 69.8 °F - 66.2 °F 88% 29.79 in 5.0 mi South 13.8 mph 23.0 mph N/A   Scattered Clouds
1:35 PM 69.8 °F - 64.4 °F 83% 29.74 in 9.0 mi SE 16.1 mph 28.8 mph N/A   Partly Cloudy
1:55 PM 71.6 °F - 64.4 °F 78% 29.73 in 10.0 mi South 11.5 mph 21.9 mph N/A   Partly Cloudy
2:15 PM 73.4 °F - 66.2 °F 78% 29.73 in 10.0 mi SE 9.2 mph - N/A   Partly Cloudy
2:35 PM 73.4 °F - 64.4 °F 73% 29.73 in 10.0 mi SSE 5.8 mph - N/A   Clear
2:55 PM 75.2 °F - 64.4 °F 69% 29.73 in 10.0 mi SSE 6.9 mph - N/A   Clear
3:15 PM 75.2 °F - 64.4 °F 69% 29.73 in 10.0 mi South 8.1 mph - N/A   Clear
3:35 PM 75.2 °F - 64.4 °F 69% 29.73 in 10.0 mi South 5.8 mph - N/A   Partly Cloudy
3:55 PM 77.0 °F - 64.4 °F 65% 29.73 in 10.0 mi SSW 6.9 mph - N/A   Partly Cloudy
4:35 PM 78.8 °F - 64.4 °F 61% 29.73 in 10.0 mi SSW 11.5 mph - N/A   Scattered Clouds
4:55 PM 78.8 °F - 64.4 °F 61% 29.71 in 10.0 mi SSW 11.5 mph - N/A   Scattered Clouds
5:15 PM 80.6 °F 82.3 °F 64.4 °F 58% 29.70 in 10.0 mi SW 15.0 mph 19.6 mph N/A   Partly Cloudy
5:35 PM 80.6 °F 82.3 °F 64.4 °F 58% 29.69 in 10.0 mi SW 13.8 mph - N/A   Partly Cloudy
5:55 PM 80.6 °F 82.3 °F 64.4 °F 58% 29.69 in 10.0 mi South 13.8 mph - N/A   Clear
6:15 PM 80.6 °F 82.3 °F 64.4 °F 58% 29.68 in 10.0 mi SSW 13.8 mph 19.6 mph N/A   Light Drizzle
6:35 PM 82.4 °F 83.9 °F 64.4 °F 54% 29.68 in 10.0 mi South 10.4 mph - N/A   Clear
6:55 PM 80.6 °F 82.3 °F 64.4 °F 58% 29.69 in 10.0 mi SSW 13.8 mph 19.6 mph N/A   Clear
7:15 PM 80.6 °F 82.3 °F 64.4 °F 58% 29.69 in 10.0 mi South 8.1 mph - N/A   Clear
7:35 PM 80.6 °F 82.3 °F 64.4 °F 58% 29.70 in 10.0 mi South 6.9 mph - N/A   Clear
7:55 PM 78.8 °F - 64.4 °F 61% 29.70 in 10.0 mi Calm Calm - N/A   Clear
8:15 PM 75.2 °F - 64.4 °F 69% 29.70 in 10.0 mi South 4.6 mph - N/A   Clear
8:35 PM 73.4 °F - 64.4 °F 73% 29.70 in 10.0 mi Calm Calm - N/A   Clear
8:55 PM 73.4 °F - 64.4 °F 73% 29.70 in 10.0 mi Calm Calm - N/A   Clear
9:15 PM 71.6 °F - 64.4 °F 78% 29.71 in 10.0 mi Calm Calm - N/A   Clear
9:35 PM 71.6 °F - 64.4 °F 78% 29.71 in 10.0 mi Calm Calm - N/A   Clear
9:55 PM 71.6 °F - 64.4 °F 78% 29.72 in 10.0 mi Calm Calm - N/A   Clear
10:15 PM 69.8 °F - 64.4 °F 83% 29.72 in 10.0 mi SE 4.6 mph - N/A   Clear
10:35 PM 71.6 °F - 64.4 °F 78% 29.72 in 10.0 mi Calm Calm - N/A   Clear
10:55 PM 71.6 °F - 66.2 °F 83% 29.73 in 10.0 mi ESE 4.6 mph - N/A   Clear
11:15 PM 69.8 °F - 66.2 °F 88% 29.73 in 10.0 mi Calm Calm - N/A   Clear
11:35 PM 69.8 °F - 66.2 °F 88% 29.74 in 10.0 mi Calm Calm - N/A   Clear
11:55 PM 68.0 °F - 66.2 °F 94% 29.73 in 7.0 mi Calm Calm - N/A   Clear